User: anonymous   Login
Location: Sun City Center
(27.6996°N, 82.3528°W)
Time: 16:38:49
(UTC-04:00)
Language:

Cosmos 2084 Rocket - Orbit

View from above orbital plane
View from above orbital plane
View from above satellite
View from above satellite

Ground track
Ground track

The orbit data is extracted from the following two-line orbital elements,

1 20666U 90055D   14297.82818553  .00001721  00000-0  18837-3 0  3278
2 20666 062.7864 131.2169 0070597 005.1353 355.0447 14.89979898317060
Epoch (UTC): 24 October 2014 19:52:35
Eccentricity: 0.0070597
inclination: 62.7864°
perigee height: 549 km
apogee height: 647 km
right ascension of ascending node: 131.2169°
argument of perigee: 5.1353°
revolutions per day: 14.89979898
mean anomaly at epoch: 355.0447°
orbit number at epoch: 31706

The dashed part of the orbit path shows where the satellite is in the earth's shadow,  

DLR